User: anonymous   Login
Location: Muenchen
(48.1800°N, 11.5800°E)
Time: 14:29:12
(UTC+02:00)
Language:

Cosmos 2233 Rocket - Orbit

View from above orbital plane
View from above orbital plane
View from above satellite
View from above satellite

Ground track
Ground track

The orbit data is extracted from the following two-line orbital elements,

1 22488U 93008B   18173.94634153 +.00000126 +00000-0 +11072-3 0  9992
2 22488 082.9413 162.5252 0023883 266.1646 149.2895 13.77732383275029
Epoch (UTC): 22 June 2018 22:42:43
Eccentricity: 0.0023883
inclination: 82.9413°
perigee height: 954 km
apogee height: 989 km
right ascension of ascending node: 162.5252°
argument of perigee: 266.1646°
revolutions per day: 13.77732383
mean anomaly at epoch: 149.2895°
orbit number at epoch: 27502

The dashed part of the orbit path shows where the satellite is in the earth's shadow,  

DLR